EHI
0 0 0 0 0 0 0 0 0 0 0 0 0 0 0 0 0 0 1 2 2 3 2 2 1 0 0 0 0 0 0 0 0 0 0 0 0 1 1 1 1 1 0
0 0 0 0 0 0 0 0 0 0 0 0 0 0 0 0 0 0 0 1 1 2 1 1 0 0 0 0 0 0 0 0 0 0 0 0 0 1 1 1 2 2 1
0 0 0 0 0 0 0 0 0 0 0 0 0 0 0 0 0 0 0 0 0 0 0 0 0 0 0 0 0 0 0 0 0 0 0 0 0 1 1 1 1 1 1
0 0 0 0 0 0 0 0 0 0 0 0 0 0 0 0 0 0 0 0 0 0 0 0 0 0 0 0 0 0 0 0 0 0 0 0 0 1 1 1 0 0 0
0 0 0 0 0 0 0 0 0 0 0 0 0 0 0 0 0 0 0 0 0 0 0 0 0 0 0 0 0 0 0 0 0 0 0 0 0 0 1 1 1 0 0
0 0 0 0 0 0 0 0 0 0 0 0 0 0 0 0 0 0 0 0 0 0 0 0 0 0 0 0 0 0 0 0 0 0 0 0 0 0 1 1 1 0 0
0 0 0 0 0 0 0 0 0 0 0 0 0 0 0 0 0 0 0 0 0 0 0 0 0 0 0 0 0 0 0 0 0 0 0 0 0 0 0 0 0 0 1
0 0 0 0 0 0 0 0 0 0 0 0 0 0 0 0 0 0 0 0 0 0 0 0 0 0 0 0 0 0 0 0 0 0 0 0 0 1 1 1 1 1 1
0 0 0 0 0 0 0 0 0 0 0 0 0 0 0 0 0 0 0 0 0 0 0 0 0 0 0 0 0 0 0 0 0 0 0 0 0 1 2 2 2 1 1
0 0 0 0 0 0 0 0 0 0 0 0 0 0 0 0 0 0 0 0 0 0 0 0 0 0 0 0 0 0 0 0 0 0 0 0 0 1 1 1 1 1 0
0 0 0 0 0 0 0 0 0 0 0 0 0 0 0 0 0 0 0 0 0 0 0 0 0 0 0 0 0 0 0 0 0 0 0 0 0 0 0 0 0 0 0
0 0 0 0 0 0 0 0 0 0 0 0 0 0 0 0 0 0 0 0 0 0 0 0 1 1 1 0 0 0 0 0 0 0 0 0 0 0 0 0 0 0 0
0 0 1 1 0 0 0 0 0 0 0 0 0 0 0 0 0 0 0 0 0 0 0 0 1 2 2 1 0 0 0 0 0 0 0 0 0 0 0 0 0 0 0
0 1 2 1 0 0 0 0 0 0 0 0 0 0 0 0 0 0 0 0 0 0 0 0 1 1 2 2 1 0 0 0 0 0 0 0 0 0 0 0 0 0 0
0 1 1 1 0 0 0 0 0 0 0 0 1 1 1 2 1 1 1 0 0 0 0 0 0 1 1 1 1 0 0 0 0 0 0 0 0 0 0 0 0 0 0
0 0 0 0 0 0 0 0 0 0 0 0 1 2 2 3 3 2 2 1 1 1 1 1 1 1 1 0 0 0 0 0 0 0 0 0 0 0 0 0 0 0 0
0 0 0 0 0 0 0 0 0 0 0 0 1 1 3 3 3 3 3 3 2 2 2 3 3 2 1 0 0 0 0 0 0 0 0 0 0 0 0 0 0 0 0
0 0 0 0 0 0 0 0 0 0 0 0 0 1 2 3 3 3 3 3 3 3 4 4 4 3 2 1 1 1 0 0 0 0 0 0 0 0 0 0 0 0 0
0 0 0 0 0 0 0 0 0 0 0 0 0 1 2 3 3 3 3 3 3 4 5 6 5 4 4 3 1 0 0 0 0 0 0 0 0 0 0 0 0 0 0
0 0 0 0 0 0 0 0 0 0 0 0 0 0 1 2 2 2 3 3 3 4 5 5 4 4 4 3 1 0 0 0 0 0 0 0 0 0 0 0 0 0 0
0 0 0 0 0 0 0 0 0 0 0 0 0 0 0 1 1 1 1 2 3 3 4 4 3 3 4 3 1 1 0 0 0 0 0 0 0 0 0 0 0 0 0
0 0 0 0 0 0 0 0 0 0 0 0 0 0 0 0 0 0 0 1 1 2 2 3 3 3 3 3 3 2 1 0 0 0 0 0 0 0 0 0 0 0 0
0 0 0 0 0 0 0 0 0 0 0 0 0 0 0 0 0 0 0 0 0 1 1 1 2 3 3 3 3 3 1 0 0 0 0 0 0 0 0 0 0 0 0
0 0 0 0 0 0 0 0 0 0 0 0 0 0 0 0 0 0 0 0 0 0 0 0 1 1 2 2 3 3 2 0 0 0 0 0 0 0 0 0 0 0 0
1 1 1 1 1 0 0 0 0 0 0 0 0 0 0 0 0 0 0 0 0 0 0 0 0 0 1 1 1 2 1 0 0 0 0 0 0 0 0 0 0 0 0
2 2 2 2 2 1 0 0 0 0 0 0 0 0 0 0 0 0 0 0 0 0 0 0 0 0 0 0 0 1 1 1 0 0 0 0 0 0 0 0 0 0 0
Wind_Speed
3 4 4 3 4 3 4 4 5 6 6 6 6 7 7 7 6 6 6 11 10 10 10 9 10 10 10 10 10 9 9 9 9 9 8 8 8 9 8 8 7 7 6
3 3 3 3 3 3 3 3 4 4 4 5 6 7 6 6 7 6 5 7 10 11 11 11 11 10 10 10 9 9 9 9 8 8 8 7 8 8 8 7 7 7 6
3 3 3 3 3 3 3 3 4 3 4 4 5 6 5 6 5 6 6 5 6 10 11 11 10 10 9 9 8 8 8 8 7 7 7 7 7 7 7 7 7 7 6
2 2 2 2 2 2 2 2 2 2 3 3 3 4 4 4 5 6 5 5 5 5 8 11 11 10 10 9 8 8 7 7 6 7 7 7 7 7 7 7 7 7 7
2 2 1 1 2 1 1 2 2 1 2 3 3 2 3 3 4 4 5 6 6 5 5 7 9 10 10 10 9 8 7 7 6 6 6 6 6 6 6 7 7 7 7
1 2 1 1 1 1 1 1 2 1 2 1 2 2 2 2 2 3 4 4 4 5 5 5 4 6 8 9 8 7 7 7 7 6 6 5 5 5 5 6 6 6 7
1 2 0 1 0 1 1 1 1 1 1 1 1 1 2 2 2 2 2 2 3 4 3 4 3 3 3 6 7 7 6 6 6 6 5 5 6 5 5 5 5 5 6
1 1 1 1 1 1 1 1 1 0 1 0 1 0 1 2 2 1 1 1 2 2 2 3 3 3 3 2 5 6 6 5 4 4 5 5 5 5 5 6 5 5 5
1 1 1 1 1 1 0 0 1 1 1 0 1 2 1 1 1 1 1 1 1 1 1 2 2 2 2 2 2 4 5 4 4 3 3 3 4 4 5 5 6 5 4
1 1 1 1 1 1 1 1 1 1 2 1 1 1 2 1 2 0 1 1 1 1 1 1 1 2 2 1 2 5 4 3 3 3 2 3 3 3 4 4 5 5 5
1 1 1 1 1 1 1 1 1 2 2 2 1 1 1 1 3 2 1 1 1 1 0 0 0 1 1 1 1 4 3 2 2 3 3 2 2 3 3 3 3 4 4
1 1 2 2 2 2 2 2 2 2 2 2 2 2 2 2 2 2 2 2 1 0 1 0 1 0 1 1 2 4 2 2 2 2 2 2 2 2 2 2 2 3 3
1 2 2 2 2 2 2 2 2 2 3 3 3 3 2 2 2 3 3 2 2 1 1 2 1 1 0 1 1 1 1 1 1 1 1 1 2 2 2 2 2 2 2
2 2 2 2 2 3 2 2 2 3 3 3 4 3 3 2 2 3 3 3 3 2 2 2 1 1 1 1 1 3 2 3 1 0 0 0 1 2 2 2 2 2 2
2 3 3 3 3 3 3 3 3 3 3 3 4 4 4 3 3 3 3 3 4 3 2 1 1 2 2 1 1 3 2 4 2 1 1 1 1 1 1 1 2 2 2
2 3 3 3 3 3 3 3 3 3 3 3 3 4 4 3 3 3 3 3 4 4 3 1 2 2 2 2 2 3 0 4 3 2 2 2 2 1 1 0 0 1 1
3 3 3 3 3 3 3 3 3 3 4 4 4 4 4 4 4 3 4 4 4 4 4 3 2 2 3 3 2 3 2 3 3 4 3 3 2 2 2 1 1 0 0
3 3 3 4 4 4 4 4 4 4 4 5 4 5 5 3 5 4 4 5 4 5 5 5 3 2 3 3 3 3 3 2 2 5 4 4 3 3 2 2 1 1 0
4 4 4 4 4 4 4 4 5 5 5 5 5 5 5 5 5 4 5 5 4 4 4 5 4 2 2 2 3 3 3 3 3 4 5 5 5 4 3 3 2 2 1
5 5 5 5 5 5 5 5 5 5 5 5 5 5 5 5 6 5 5 5 5 5 5 4 4 3 3 3 3 3 3 3 3 3 3 3 5 6 5 4 4 3 3
5 5 5 5 5 5 4 5 5 6 6 6 6 6 6 5 5 5 4 5 5 5 4 5 4 4 3 3 3 3 3 3 3 3 3 3 4 4 5 7 6 4 3
5 5 5 6 6 5 3 4 6 7 7 7 6 6 6 6 6 7 7 6 6 6 6 5 5 5 5 4 3 4 4 4 3 3 3 3 3 3 3 2 4 3 3
6 6 6 6 7 6 4 6 7 7 7 7 7 7 5 5 6 6 7 8 8 8 8 7 7 6 6 4 5 5 5 5 4 2 3 4 3 3 2 2 5 4 3
5 5 6 7 7 6 5 6 7 9 8 8 8 8 7 7 5 6 6 7 7 7 7 8 7 6 5 4 5 5 5 5 4 2 4 4 3 3 2 3 7 5 3
5 6 6 7 7 6 5 6 7 7 7 8 8 7 8 8 4 5 7 7 6 5 4 4 4 3 2 2 3 4 4 4 4 3 3 3 2 2 3 3 5 7 5
5 5 5 6 7 7 5 5 7 6 7 7 6 7 7 7 5 6 7 7 7 5 4 4 5 5 5 5 6 6 5 5 4 3 3 3 2 2 3 3 3 4 4
Wind_Direction
76 73 71 67 64 63 66 54 54 57 57 57 55 55 56 58 59 62 67 56 50 51 55 67 72 74 74 73 70 67 67 67 69 70 69 66 68 68 68 70 70 72 78
79 79 76 64 59 57 56 60 61 55 58 54 54 56 55 55 56 60 64 71 60 50 52 55 60 65 67 70 68 68 67 68 69 69 68 64 66 66 66 67 68 66 72
75 77 70 71 61 60 60 57 60 54 60 61 61 58 56 49 51 55 54 53 69 66 54 54 58 61 63 67 69 69 68 68 68 68 69 67 65 63 63 66 68 65 66
77 71 67 69 68 69 60 63 52 53 63 55 54 56 61 59 52 53 58 60 52 59 66 57 55 56 57 59 61 64 64 63 67 68 71 69 66 66 63 62 64 65 63
71 78 63 64 73 66 63 71 65 47 59 59 62 59 59 61 55 53 57 57 60 57 65 74 64 53 50 49 53 59 60 61 63 69 72 74 69 66 63 60 59 61 63
75 87 92 94 95 84 65 89 93 72 57 54 67 64 61 74 67 51 51 54 55 57 55 57 69 73 58 47 45 51 56 59 58 64 69 75 72 65 64 62 63 62 61
80 93 96 97 101 83 49 71 86 102 88 65 126 113 108 89 70 71 54 47 57 54 56 59 52 48 82 75 49 44 51 50 50 56 63 69 68 63 60 61 66 66 64
122 111 165 147 128 108 104 84 89 310 90 59 299 243 160 150 134 102 86 46 50 61 49 51 56 51 37 53 70 52 44 44 42 46 57 64 66 67 65 61 62 66 65
190 209 225 231 189 205 166 186 195 237 244 209 320 310 299 21 49 135 104 82 45 35 55 49 42 41 44 38 67 79 46 39 39 41 57 64 69 71 68 63 64 66 62
206 237 241 254 236 237 205 215 217 236 243 231 191 301 324 357 286 225 170 120 42 14 36 55 29 38 39 33 59 55 48 38 33 34 45 55 69 78 73 68 66 67 62
219 241 258 254 246 238 242 230 223 238 233 251 253 247 253 238 267 275 264 234 201 196 349 320 296 27 26 24 20 61 53 46 37 37 34 35 55 81 76 74 69 69 64
221 231 250 252 253 246 239 238 231 231 245 245 250 247 252 255 264 261 263 267 268 227 226 213 244 46 349 6 52 59 54 53 45 42 34 27 49 68 70 67 68 63 58
219 228 233 251 253 253 245 234 232 237 233 232 241 249 252 262 276 272 271 273 274 250 222 212 203 203 251 310 92 75 142 102 63 49 44 48 54 62 56 54 62 51 50
253 236 229 243 250 247 238 228 238 237 241 234 236 242 251 253 254 258 264 267 262 241 224 215 186 209 256 268 64 262 169 146 147 88 69 74 104 88 60 47 47 33 35
270 256 235 237 239 239 240 231 238 234 241 242 242 238 243 248 250 254 255 256 266 269 253 215 220 218 243 254 165 245 221 120 154 177 222 213 157 119 89 61 46 38 33
252 257 243 236 233 234 236 238 246 249 245 241 251 251 247 249 248 246 250 253 258 268 270 263 258 236 238 238 219 254 148 138 178 192 212 204 181 172 170 180 31 46 31
246 251 253 242 237 236 235 230 242 246 250 248 242 245 247 251 247 241 242 242 245 252 258 261 245 241 238 239 213 243 218 212 173 181 206 202 202 198 205 222 226 315 351
252 252 251 244 237 238 240 239 240 244 251 257 256 254 250 240 247 248 241 239 240 244 251 261 242 238 246 247 240 238 234 229 215 162 188 200 204 204 206 203 201 192 151
249 247 247 249 243 241 242 244 245 246 248 254 257 257 256 246 242 242 242 244 244 243 245 253 252 239 241 237 241 240 235 234 232 172 184 194 196 201 203 204 206 199 201
248 247 248 250 246 242 241 245 249 250 252 253 254 255 256 255 254 249 243 245 246 245 242 247 246 234 226 227 235 234 231 222 231 218 199 194 186 198 205 205 207 206 215
247 249 250 250 249 246 247 256 256 256 256 254 253 252 255 262 277 269 259 251 250 248 243 242 240 239 225 215 229 231 239 236 229 227 226 208 200 210 199 199 201 200 216
244 248 251 250 249 247 245 256 263 259 258 257 258 256 254 245 253 253 258 264 263 257 253 243 240 239 239 232 230 234 235 234 235 206 234 229 220 225 218 207 148 178 211
245 244 248 251 252 249 231 238 249 260 260 260 262 260 258 253 246 249 242 238 241 247 256 260 252 249 248 240 231 235 237 241 251 213 224 232 216 228 216 152 145 171 195
245 246 250 252 256 252 232 237 242 251 257 257 256 259 259 256 245 252 253 248 244 235 235 243 253 258 258 248 238 242 242 243 251 210 211 235 217 231 224 183 158 175 190
252 251 253 256 256 251 233 234 243 254 255 258 258 258 259 257 243 246 249 250 250 245 227 250 281 276 287 268 242 229 224 224 232 213 203 238 231 243 234 208 170 179 187
258 258 256 256 260 263 248 239 249 255 255 256 255 254 251 255 251 233 243 244 245 247 242 231 236 224 223 208 212 226 225 229 231 224 190 223 222 220 233 208 197 195 198